Location: Saluda
(35.2377°N, 82.3468°W)
Time: 04:21:49
(UTC+00:00)

Vanguard 2 Rocket - Pass Details

Date: 04 October 2022
Orbit: 555 x 3321 km, 32.9° (Epoch: 04 December)

Event Time Altitude Azimuth Distance (km) Brightness Sun altitude
Rises 00:25:54 0° 203° (SSW) 7,284 11.7 -16.3°
Reaches altitude 10° 00:32:18 10° 192° (SSW) 6,247 11.2 -17.5°
Maximum altitude 00:46:36 26° 146° (SE) 4,529 10.0 -20.4°
Enters shadow 00:51:16 23° 123° (ESE) 4,435 9.8 -21.4°
Drops below altitude 10° 00:57:49 10° 97° (E) 4,895 - -22.7°
Sets 01:01:54 0° 85° (E) 5,501 - -23.5°
